This demonstration page uses our WeatherBlox Daily Observations layout. Learn more.

Left ArrowRight Arrow

47.50024, -111.30081

Hourly Observations for June 21, 2020

Temp ( °F °C ) Dew Point ( °F °C ) Humidity (%) Winds ( mph kmh ) Pressure ( in mb ) Visibility ( mi km ) Precip ( " mm )
12:53 am 00:53 Cloudy 58 14.4 47 8.3 67 67 SSW 8 13 29.83 1010 10 16 0.00 0.00
1:53 am 01:53 Partly Cloudy 57 13.9 46 7.8 67 67 SW 10 17 29.83 1010 10 16 0.00 0.00
2:53 am 02:53 Mostly Cloudy 57 13.9 47 8.3 69 69 SW 10 17 29.83 1010 10 16 0.00 0.00
3:53 am 03:53 Partly Cloudy 56 13.3 46 7.8 70 70 SW 12 19 29.84 1011 10 16 0.00 0.00
4:53 am 04:53 Cloudy 56 13.3 47 8.3 72 72 SW 9 15 29.84 1011 10 16 0.00 0.00
5:53 am 05:53 Mostly Cloudy 56 13.3 47 8.3 72 72 SW 12 19 29.85 1011 10 16 0.00 0.00
6:53 am 06:53 Cloudy 59 15 48 8.9 67 67 SW 10 17 29.85 1011 10 16 0.00 0.00
7:53 am 07:53 Cloudy 64 17.8 48 8.9 56 56 SW 12 19 29.85 1011 10 16 0.00 0.00
8:53 am 08:53 Mostly Sunny 65 18.3 49 9.4 56 56 SW 13 20 29.86 1011 10 16 0.00 0.00
9:53 am 09:53 Mostly Cloudy 67 19.4 48 8.9 51 51 WSW 15 24 29.87 1011 10 16 0.00 0.00
10:53 am 10:53 Mostly Cloudy 69 20.6 49 9.4 49 49 SW 12 19 29.88 1012 10 16 0.00 0.00
11:24 am 11:24 Mostly Cloudy 69 20.6 45 7.2 42 42 W 16 26 29.77 1008 10 16 0.00 0.00
11:53 am 11:53 Partly Cloudy 70 21.1 45 7.2 41 41 W 17 28 29.88 1012 10 16 0.00 0.00
12:53 pm 12:53 Cloudy 71 21.7 44 6.7 38 38 WNW 15 24 29.88 1012 10 16 0.00 0.00
1:53 pm 13:53 Mostly Cloudy 72 22.2 43 6.1 35 35 WNW 12 19 29.88 1012 10 16 0.00 0.00
2:53 pm 14:53 Mostly Sunny 72 22.2 43 6.1 35 35 WNW 10 17 29.88 1012 10 16 0.00 0.00
3:53 pm 15:53 Mostly Sunny 76 24.4 44 6.7 32 32 WNW 8 13 29.87 1012 10 16 0.00 0.00
4:53 pm 16:53 Partly Cloudy 77 25 43 6.1 30 30 W 10 17 29.86 1011 10 16 0.00 0.00
5:53 pm 17:53 Sunny 76 24.4 42 5.6 30 30 W 8 13 29.86 1011 10 16 0.00 0.00
6:53 pm 18:53 Mostly Sunny 76 24.4 42 5.6 30 30 NW 12 19 29.85 1011 10 16 0.00 0.00
7:53 pm 19:53 Partly Cloudy 70 21.1 46 7.8 42 42 NW 12 19 29.88 1012 10 16 0.00 0.00
8:53 pm 20:53 Cloudy 68 20 44 6.7 42 42 NNW 12 19 29.90 1013 10 16 0.00 0.00
9:53 pm 21:53 Mostly Cloudy 64 17.8 47 8.3 54 54 N 9 15 29.93 1014 10 16 0.00 0.00
10:53 pm 22:53 Cloudy 62 16.7 47 8.3 58 58 NE 8 13 29.97 1015 10 16 0.00 0.00
11:53 pm 23:53 Cloudy 61 16.1 48 8.9 63 63 E 8 13 30.00 1016 10 16 0.00 0.00

Powered by AerisWeather